Regional Weather Roundup
Issued by NWS

Home | Current Version | Previous Version | Text Only | Print | Product List | Glossary On
Versions: 1 2 3 4 5 6 7 8 9 10 11 12 13 14 15 16 17 18 19 20 21 22 23 24 25 26 27 28 29 30 31 32 33 34 35 36 37 38 39 40 41 42 43 44 45 46 47 48 49 50
361
ASUS43 KDTX 220501
RWRMI
MICHIGAN HOURLY REGIONAL WEATHER ROUNDUP
NATIONAL WEATHER SERVICE DETROIT/PONTIAC MI
100 AM EDT FRI SEP 22 2017

NOTE: "FAIR" INDICATES FEW OR NO CLOUDS BELOW 12,000 FEET WITH NO
SIGNIFICANT WEATHER AND/OR OBSTRUCTION TO VISIBILITY.

MIZ047>049-052>055-059>063-066>070-074>076-081>083-220600-
SOUTHEAST LOWER MICHIGAN

CITY           SKY/WX    TMP DP  RH WIND       PRES   REMARKS
ADRIAN         CLEAR     71  68  90 S5        30.09S
ALMA           CLEAR     64  60  88 CALM      30.08R
ANN ARBOR      CLEAR     72  67  84 CALM      30.08S
BAD AXE        CLEAR     71  66  84 S6        30.09R
CARO           CLOUDY    65  64  93 CALM      30.08S
DETROIT CITY   CLEAR     72  65  78 CALM      30.10R
DETROIT        PTCLDY    72  67  84 SE3       30.08F
FLINT          CLOUDY    69  61  75 CALM      30.08S
GROSSE ILE     CLEAR     72  64  76 SE5       30.08R
HILLSDALE      CLEAR     72  63  73 SE7       30.08F
HOWELL         CLEAR     66  63  89 CALM      30.08F

CITY           SKY/WX    TMP DP  RH WIND       PRES   REMARKS
JACKSON        CLEAR     71  63  75 CALM      30.08S
LAMBERTVILLE   PTCLDY    73  69  88 SE3       30.08F
LANSING        CLEAR     66  64  93 E3        30.09R
LAPEER         FAIR      68  65  91 CALM      30.10S
MASON          CLEAR     68  64  88 S5        30.08S
MONROE         CLEAR     72  67  83 E6        30.08S
MT. CLEMENS    CLEAR     67  67 100 SE7       30.08R
PONTIAC        PTCLDY    70  66  87 E3        30.09R
PORT HOPE        N/A     74  68  81 S5        30.06R
PORT HURON     CLEAR     68  63  83 S3        30.10R
TRI CITIES     CLEAR     67  63  87 S3        30.08S
MIDLAND        FAIR      65  63  93 CALM      30.07S
TROY           CLEAR     73  64  73 E3        30.11S
SAGINAW HB     PTCLDY    63  59  88 CALM      30.07S
$$
MIZ043>046-050>051-056>058-064>065-071>073-077>080-220600-
SOUTHWEST LOWER MICHIGAN

CITY           SKY/WX    TMP DP  RH WIND       PRES   REMARKS
BATTLE CREEK   CLEAR     69  64  84 CALM      30.08S
BENTON HARBOR  CLEAR     73  67  81 E5        30.05S
BIG RAPIDS     CLEAR     65  62  91 CALM      30.07R
COLDWATER      CLEAR     73  64  74 SE5       30.08S
FREMONT        FAIR      71  66  85 SE3       30.05S
HOLLAND        CLEAR     71  63  75 S7        30.06S
GRAND RAPIDS   CLEAR     71  64  78 S6        30.06S
IONIA          FAIR      65  64  94 CALM      30.06S
KALAMAZOO      CLEAR     69  63  81 CALM      30.08R
LUDINGTON      PTCLDY    66  64  95 CALM      30.02F
MARSHALL       CLEAR     69  64  83 CALM      30.07S
MUSKEGON       CLEAR     74  64  71 SE8       30.04S
SOUTH HAVEN    CLEAR     74  66  77 SE3       30.05S
$$
MIZ016>042-220600-
NORTHERN LOWER MICHIGAN

CITY           SKY/WX    TMP DP  RH WIND       PRES   REMARKS
ALPENA         CLEAR     64  64 100 CALM      30.06S FOG
BEAVER ISLAND  FOG       64  64 100 CALM      30.04S VSB 1/2
BELLAIRE       FOG       63  62  96 CALM      30.04S VSB 1/4
CADILLAC       CLOUDY    65  62  89 CALM      30.08S FOG
CHARLEVOIX     CLEAR     68  68 100 SE5       30.07S
FRANKFORT      CLEAR     63  63 100 CALM      30.03S FOG
GAYLORD        FOG       63  61  93 CALM      30.08S VSB 1
GRAYLING       FOG       62  60  94 CALM      30.08S VSB<1/4
HARBOR SPRINGS CLEAR     66  65  95 CALM      30.05R
HOUGHTON LAKE  FOG       64  63  96 CALM      30.08S VSB 1/2
MANISTEE       CLOUDY    65  65 100 E3        30.03R
OSCODA         CLEAR     68  68  99 SW6       30.05S
PELLSTON       FOG       61  61 100 CALM      30.05S VSB 1/4
ROGERS CITY    CLEAR     64  63  97 CALM      30.06S FOG
TRAVERSE CITY  CLOUDY    67  64  90 CALM      30.03S
$$
MIZ007>008-015-220600-
EASTERN UPPER MICHIGAN

CITY           SKY/WX    TMP DP  RH WIND       PRES   REMARKS
KINROSS        CLEAR     64  64 100 SE7       30.06S FOG
MACKINAC ISLAN FOG       66  66 100 E5        30.05F VSB 3/4
NEWBERRY       FOG       64  63  97 SE5       30.04S VSB 3/4
S. S. MARIE    PTCLDY    68  66  93 CALM      30.06R FOG
MUNISING         N/A     66  66 100 SW5       30.00F
$$
MIZ004>006-011>014-085-220600-
CENTRAL UPPER MICHIGAN

CITY           SKY/WX    TMP DP  RH WIND       PRES   REMARKS
MANISTIQUE     HAZE      63  58  82 CALM      30.03S VSB 3/4
ESCANABA       CLOUDY    66  66 100 SW3       30.01F FOG
MENOMINEE      FOG       64  64 100 CALM      30.02S VSB 1/4
SAWYER-GWINN   CLOUDY    61  60  96 S7        30.02F FOG
$$
MIZ001>003-009>011-084-220600-
WESTERN UPPER MICHIGAN

CITY           SKY/WX    TMP DP  RH WIND       PRES   REMARKS
IRON MOUNTAIN  CLOUDY    67  64  90 SE5       30.01S FOG
HOUGHTON       CLEAR     60  57  89 NE5       29.97S
COPPER HARBOR    N/A     63  60  90 SW10G18   29.94F
IRONWOOD       MOCLDY    72  65  78 S10G18    29.94S
$$

ABBREVIATIONS USED IN REMARKS
   TC - TEMPERATURE IN CELSIUS
  WCI - WIND CHILL INDEX
   HX - HEAT INDEX
  VSB - VISIBILITY





USA.gov is the U.S. government's official web portal to all federal, state and local government web resources and services.